Weather History for Yakutat, AK

Change the Weather History Date:

Wednesday, September 11, 2013

  Actual Average Record
Temperature  
Mean Temperature 53 °F 49 °F  
Max Temperature 57 °F 57 °F 68 °F (1986)
Min Temperature 49 °F 42 °F 27 °F (1970)
Degree Days  
Heating Degree Days 12 16  
Month to date heating degree days 113 163  
Since 1 July heating degree days 677 841  
Cooling Degree Days 0    
Month to date cooling degree days 0  
Year to date cooling degree days 0  
Growing Degree Days 4 (Base 50)    
Moisture  
Dew Point 54 °F    
Average Humidity 98    
Maximum Humidity 100    
Minimum Humidity 93    
Precipitation  
Precipitation 2.54 in 0.67 in 4.45 in (1960)
Month to date precipitation 12.27 6.77  
Year to date precipitation 89.90 88.07  
Snow  
Snow 0.00 in 0.00 in T in (1992)
Month to date snowfall 0.0 0.0  
Since 1 July snowfall T 0.0  
Since 1 September snowfall 0.0 0.0  
Snow Depth 0.00 in    
Sea Level Pressure  
Sea Level Pressure 29.92 in    
Wind  
Wind Speed 3 mph (SSW)    
Max Wind Speed 18 mph    
Max Gust Speed 29 mph    
Visibility 5 miles    
Events Rain    
T = Trace of Precipitation, MM = Missing Value Source: NWS Daily Summary

Daily Weather History Graph

Daily Weather History Graph

Search for Another Location

Airport:

Trip Planner

Search our weather history database for the weather conditions in past years. The results will help you decide how hot, cold, wet, or windy it might be!

Date:

Astronomy

Sep. 11, 2013 Rise Set
Actual Time 6:38 AM AKDT 7:49 PM AKDT
Civil Twilight 5:56 AM AKDT 8:31 PM AKDT
Nautical Twilight 5:04 AM AKDT 9:23 PM AKDT
Astronomical Twilight 4:04 AM AKDT 10:23 PM AKDT
Moon 2:53 PM AKDT (9/11) 10:15 PM AKDT (9/11)
Length of Visible Light 14h 35m
Length of Day
13h 10m
Waxing Crescent, 40% of the Moon is Illuminated
Sep 11
Waxing Crescent
Sep 12
First Quarter
Sep 19
Full
Sep 26
Last Quarter
Oct 4
New

Hourly Weather History & Observations

Time (AKDT) Temp. Dew Point Humidity Pressure Visibility Wind Dir Wind Speed Gust Speed Precip Events Conditions
12:19 AM 51.8 °F 50.0 °F 94% 29.88 in 7.0 mi East 4.6 mph - 0.07 in Rain Light Rain
12:53 AM 51.1 °F 51.1 °F 100% 29.87 in 7.0 mi ENE 4.6 mph - 0.16 in Rain Light Rain
1:53 AM 52.0 °F 52.0 °F 100% 29.86 in 4.0 mi East 6.9 mph - 0.09 in Rain Light Rain
2:53 AM 53.1 °F 52.0 °F 96% 29.83 in 4.0 mi East 9.2 mph - 0.12 in Rain Rain
3:19 AM 53.6 °F 51.8 °F 94% 29.82 in 4.0 mi East 8.1 mph - 0.12 in Rain Heavy Rain
3:53 AM 54.0 °F 54.0 °F 100% 29.82 in 3.0 mi ESE 10.4 mph 19.6 mph 0.34 in Rain Heavy Rain
4:53 AM 55.9 °F 55.9 °F 100% 29.81 in 3.0 mi SE 13.8 mph 27.6 mph 0.24 in Rain Light Rain
5:05 AM 57.2 °F 55.4 °F 94% 29.81 in 2.5 mi SE 16.1 mph 25.3 mph 0.02 in   Overcast
5:27 AM 57.2 °F 55.4 °F 94% 29.81 in 3.0 mi SSE 12.7 mph 27.6 mph 0.12 in Rain Rain
5:53 AM 57.0 °F 57.0 °F 100% 29.82 in 4.0 mi SSE 10.4 mph 26.5 mph 0.21 in Rain Rain
6:53 AM 57.0 °F 57.0 °F 100% 29.83 in 4.0 mi South 11.5 mph 20.7 mph 0.20 in Rain Rain
7:53 AM 57.0 °F 57.0 °F 100% 29.84 in 3.0 mi South 8.1 mph 17.3 mph 0.20 in Rain Rain
8:31 AM 57.2 °F 57.2 °F 100% 29.84 in 2.5 mi South 6.9 mph - 0.11 in Rain Rain
8:53 AM 57.0 °F 55.9 °F 96% 29.85 in 2.5 mi SW 4.6 mph - 0.18 in Rain Rain
9:06 AM 55.4 °F 55.4 °F 100% 29.85 in 1.5 mi SW 6.9 mph - 0.06 in Rain Heavy Rain
9:25 AM 55.4 °F 55.4 °F 100% 29.86 in 2.5 mi WSW 6.9 mph - 0.15 in Rain Rain
9:40 AM 55.4 °F 55.4 °F 100% 29.86 in 1.8 mi WSW 5.8 mph - 0.21 in Rain Heavy Rain
9:48 AM 55.4 °F 55.4 °F 100% 29.86 in 2.0 mi SW 4.6 mph - 0.25 in Rain Rain
9:53 AM 55.9 °F 55.0 °F 97% 29.86 in 2.0 mi Calm Calm - 0.27 in Rain Rain
10:07 AM 55.4 °F 55.4 °F 100% 29.87 in 3.0 mi SW 4.6 mph - 0.05 in Rain Rain
10:17 AM 55.4 °F 55.4 °F 100% 29.87 in 2.5 mi SW 4.6 mph - 0.08 in Rain Heavy Rain
10:27 AM 55.4 °F 55.4 °F 100% 29.87 in 1.8 mi SSW 5.8 mph - 0.13 in Rain Rain
10:36 AM 55.4 °F 55.4 °F 100% 29.88 in 2.5 mi Variable 6.9 mph - 0.17 in Rain Rain
10:43 AM 55.4 °F 53.6 °F 94% 29.88 in 2.0 mi WSW 6.9 mph - 0.20 in Rain Heavy Rain
10:53 AM 54.0 °F 54.0 °F 100% 29.89 in 2.0 mi WSW 4.6 mph - 0.24 in Rain Rain
11:11 AM 53.6 °F 53.6 °F 100% 29.89 in 2.0 mi WSW 4.6 mph - 0.07 in Rain Rain
11:24 AM 53.6 °F 53.6 °F 100% 29.89 in 3.0 mi WSW 3.5 mph - 0.10 in Rain Rain
11:29 AM 55.4 °F 53.6 °F 94% 29.89 in 2.5 mi WSW 3.5 mph - 0.12 in Rain Rain
11:37 AM 55.4 °F 53.6 °F 94% 29.90 in 4.0 mi SW 4.6 mph - 0.13 in Rain Rain
11:53 AM 55.0 °F 55.0 °F 100% 29.91 in 3.0 mi Calm Calm - 0.17 in Rain Rain
12:04 PM 55.4 °F 55.4 °F 100% 29.91 in 4.0 mi SW 3.5 mph - 0.02 in Rain Light Rain
12:44 PM 55.4 °F 55.4 °F 100% 29.92 in 2.5 mi West 3.5 mph - 0.09 in Rain Rain
12:53 PM 55.0 °F 55.0 °F 100% 29.93 in 2.5 mi West 3.5 mph - 0.10 in Rain Rain
12:57 PM 55.4 °F 53.6 °F 94% 29.93 in 3.0 mi WSW 5.8 mph - 0.02 in Rain Rain
1:29 PM 53.6 °F 53.6 °F 100% 29.94 in 4.0 mi West 3.5 mph - 0.08 in Rain Rain
1:40 PM 55.4 °F 53.6 °F 94% 29.94 in 4.0 mi Calm Calm - 0.09 in Rain Rain
1:53 PM 54.0 °F 54.0 °F 100% 29.95 in 4.0 mi WSW 4.6 mph - 0.12 in Rain Light Rain
2:53 PM 54.0 °F 54.0 °F 100% 29.96 in 6.0 mi Calm Calm - 0.06 in Rain Light Rain
3:53 PM 55.0 °F 54.0 °F 96% 29.97 in 6.0 mi Calm Calm - 0.01 in   Overcast
4:09 PM 55.4 °F 53.6 °F 94% 29.97 in 8.0 mi Calm Calm - N/A   Overcast
4:25 PM 55.4 °F 53.6 °F 94% 29.97 in 10.0 mi Calm Calm - N/A   Overcast
4:53 PM 55.0 °F 54.0 °F 96% 29.97 in 10.0 mi Calm Calm - N/A   Overcast
5:05 PM 55.4 °F 53.6 °F 94% 29.97 in 10.0 mi Calm Calm - N/A   Overcast
5:24 PM 55.4 °F 53.6 °F 94% 29.97 in 10.0 mi Calm Calm - N/A   Overcast
5:31 PM 55.4 °F 53.6 °F 94% 29.97 in 10.0 mi South 3.5 mph - N/A   Overcast
5:53 PM 55.0 °F 54.0 °F 96% 29.98 in 10.0 mi Calm Calm - N/A   Overcast
6:53 PM 55.0 °F 53.1 °F 93% 29.99 in 10.0 mi SSW 3.5 mph - 0.00 in   Overcast
7:53 PM 54.0 °F 54.0 °F 100% 29.99 in 10.0 mi Calm Calm - N/A   Overcast
8:53 PM 53.1 °F 53.1 °F 100% 30.01 in 10.0 mi Calm Calm - N/A   Overcast
9:21 PM 53.6 °F 51.8 °F 94% 30.01 in 10.0 mi Calm Calm - N/A   Overcast
9:29 PM 53.6 °F 51.8 °F 94% 30.01 in 10.0 mi Calm Calm - N/A   Overcast
9:41 PM 51.8 °F 51.8 °F 100% 30.01 in 2.5 mi Calm Calm - N/A   Mostly Cloudy
9:50 PM 51.8 °F 51.8 °F 100% 30.01 in 2.5 mi NE 3.5 mph - N/A   Mostly Cloudy
9:53 PM 51.1 °F 51.1 °F 100% 30.01 in 3.0 mi North 3.5 mph - N/A   Mostly Cloudy
10:33 PM 51.8 °F 51.8 °F 100% 30.02 in 10.0 mi Calm Calm - N/A   Overcast
10:45 PM 51.8 °F 51.8 °F 100% 30.03 in 9.0 mi Calm Calm - N/A   Overcast
10:53 PM 52.0 °F 52.0 °F 100% 30.03 in 8.0 mi Calm Calm - N/A   Overcast
11:04 PM 51.8 °F 51.8 °F 100% 30.03 in 10.0 mi Calm Calm - N/A   Overcast
11:19 PM 51.8 °F 51.8 °F 100% 30.03 in 3.0 mi Calm Calm - N/A   Overcast
11:24 PM 51.8 °F 51.8 °F 100% 30.02 in 1.8 mi Calm Calm - N/A   Overcast
11:27 PM 51.8 °F 50.0 °F 94% 30.02 in 1.2 mi Calm Calm - N/A   Overcast
11:37 PM 51.8 °F 51.8 °F 100% 30.03 in 2.0 mi Calm Calm - N/A   Overcast
11:53 PM 51.1 °F 51.1 °F 100% 30.03 in 8.0 mi Calm Calm - N/A   Overcast